Location: La Pernelle
(49.6188°N, 1.2999°W)
Time: 04:09:28
(UTC+00:00)

NOSS 3-2 (A) - Pass Details

Date: 25 October 2021
Orbit: 771 x 1437 km, 63.4° (Epoch: 21 November)

Event Time Altitude Azimuth Distance (km) Brightness Sun altitude
Rises 17:16:52 0° 295° (WNW) 3,607 7.4 -4.2°
Reaches altitude 10° 17:19:45 10° 308° (NW) 2,762 6.5 -4.7°
Maximum altitude 17:25:10 26° 4° (N) 2,009 5.0 -5.5°
Drops below altitude 10° 17:31:18 10° 59° (ENE) 3,167 5.6 -6.5°
Enters shadow 17:32:31 - 64° (ENE) 3,523 5.8 -6.7°
